QPF
0.02 0.04 0.04 0.03 0.01 0.01 0.00 0.00 0.01 0.02 0.03 0.03 0.05 0.07 0.09 0.10 0.06 0.04 0.03 0.03 0.03 0.03 0.03 0.07 0.09 0.11 0.12 0.10 0.08 0.08 0.08 0.09 0.10 0.09 0.08 0.08 0.06 0.06 0.06 0.07 0.08 0.05 0.06
0.03 0.03 0.03 0.02 0.01 0.01 0.01 0.01 0.01 0.02 0.02 0.03 0.04 0.05 0.05 0.05 0.04 0.04 0.03 0.02 0.03 0.04 0.04 0.05 0.06 0.08 0.07 0.07 0.08 0.09 0.08 0.09 0.11 0.11 0.11 0.11 0.09 0.09 0.06 0.06 0.05 0.04 0.06
0.02 0.02 0.02 0.02 0.02 0.02 0.02 0.01 0.01 0.01 0.02 0.02 0.03 0.03 0.03 0.04 0.04 0.03 0.02 0.02 0.03 0.04 0.07 0.07 0.08 0.08 0.07 0.07 0.11 0.11 0.09 0.09 0.10 0.12 0.12 0.09 0.10 0.11 0.11 0.10 0.09 0.05 0.05
0.01 0.02 0.01 0.02 0.02 0.02 0.01 0.01 0.02 0.02 0.01 0.01 0.02 0.02 0.02 0.03 0.03 0.03 0.02 0.02 0.03 0.04 0.06 0.07 0.08 0.06 0.06 0.07 0.10 0.13 0.12 0.09 0.09 0.14 0.10 0.07 0.08 0.10 0.12 0.11 0.10 0.08 0.05
0.02 0.02 0.02 0.02 0.02 0.02 0.02 0.01 0.01 0.01 0.01 0.01 0.01 0.02 0.02 0.02 0.03 0.03 0.02 0.02 0.03 0.05 0.08 0.11 0.15 0.15 0.13 0.14 0.16 0.16 0.14 0.12 0.12 0.11 0.06 0.04 0.06 0.09 0.09 0.09 0.10 0.08 0.06
0.02 0.03 0.03 0.03 0.02 0.02 0.03 0.02 0.02 0.01 0.01 0.01 0.01 0.02 0.02 0.02 0.02 0.02 0.02 0.02 0.04 0.05 0.08 0.12 0.17 0.22 0.25 0.24 0.20 0.17 0.13 0.12 0.11 0.09 0.07 0.06 0.05 0.07 0.08 0.09 0.10 0.09 0.07
0.01 0.01 0.02 0.03 0.01 0.01 0.01 0.01 0.01 0.01 0.01 0.01 0.01 0.02 0.02 0.02 0.02 0.02 0.03 0.03 0.04 0.04 0.04 0.07 0.14 0.20 0.19 0.18 0.21 0.19 0.11 0.06 0.06 0.06 0.05 0.06 0.07 0.09 0.08 0.08 0.08 0.09 0.08
0.00 0.01 0.01 0.01 0.01 0.00 0.00 0.01 0.01 0.01 0.01 0.01 0.01 0.02 0.03 0.04 0.03 0.03 0.02 0.03 0.03 0.03 0.03 0.03 0.05 0.08 0.10 0.14 0.17 0.18 0.08 0.04 0.02 0.03 0.04 0.05 0.08 0.11 0.09 0.08 0.07 0.08 0.07
0.00 0.00 0.01 0.01 0.01 0.01 0.01 0.01 0.00 0.01 0.01 0.01 0.01 0.03 0.04 0.03 0.03 0.03 0.03 0.03 0.03 0.03 0.03 0.04 0.07 0.05 0.05 0.09 0.13 0.10 0.06 0.05 0.02 0.01 0.02 0.04 0.08 0.09 0.09 0.09 0.08 0.09 0.08
0.01 0.01 0.01 0.01 0.01 0.01 0.01 0.01 0.01 0.01 0.01 0.01 0.02 0.04 0.04 0.04 0.05 0.06 0.03 0.02 0.04 0.05 0.05 0.07 0.20 0.12 0.06 0.05 0.05 0.06 0.05 0.04 0.01 0.01 0.01 0.02 0.04 0.05 0.06 0.07 0.08 0.08 0.08
0.01 0.01 0.01 0.01 0.01 0.01 0.01 0.01 0.02 0.01 0.01 0.03 0.04 0.04 0.06 0.12 0.16 0.08 0.03 0.03 0.06 0.09 0.11 0.10 0.17 0.20 0.12 0.06 0.04 0.03 0.04 0.01 0.01 0.01 0.01 0.01 0.03 0.04 0.05 0.07 0.09 0.07 0.07
0.01 0.01 0.02 0.02 0.01 0.01 0.01 0.01 0.01 0.02 0.03 0.04 0.03 0.03 0.04 0.09 0.12 0.04 0.02 0.04 0.08 0.09 0.10 0.14 0.14 0.15 0.14 0.09 0.04 0.03 0.02 0.02 0.01 0.01 0.02 0.02 0.03 0.04 0.05 0.07 0.09 0.09 0.08
0.01 0.01 0.02 0.03 0.03 0.02 0.01 0.01 0.01 0.02 0.02 0.02 0.01 0.02 0.02 0.02 0.03 0.01 0.01 0.03 0.09 0.10 0.07 0.10 0.13 0.11 0.10 0.07 0.04 0.04 0.03 0.03 0.03 0.01 0.02 0.03 0.04 0.06 0.08 0.10 0.11 0.11 0.08
0.01 0.01 0.02 0.03 0.04 0.05 0.04 0.02 0.01 0.02 0.02 0.01 0.01 0.01 0.02 0.01 0.00 0.00 0.00 0.01 0.06 0.13 0.12 0.13 0.13 0.10 0.08 0.06 0.05 0.05 0.04 0.05 0.04 0.02 0.03 0.05 0.05 0.06 0.08 0.10 0.11 0.11 0.12
0.01 0.01 0.02 0.04 0.04 0.05 0.06 0.05 0.03 0.03 0.03 0.01 0.00 0.01 0.01 0.01 0.00 0.01 0.01 0.01 0.02 0.05 0.09 0.10 0.08 0.06 0.05 0.06 0.06 0.05 0.06 0.05 0.05 0.04 0.04 0.05 0.06 0.06 0.08 0.15 0.13 0.11 0.12
0.01 0.01 0.02 0.04 0.05 0.05 0.05 0.07 0.05 0.03 0.03 0.02 0.01 0.01 0.01 0.01 0.01 0.01 0.01 0.01 0.01 0.01 0.03 0.03 0.03 0.03 0.02 0.03 0.04 0.03 0.04 0.04 0.05 0.05 0.05 0.06 0.05 0.06 0.06 0.07 0.07 0.07 0.09
0.00 0.01 0.02 0.04 0.05 0.05 0.05 0.07 0.05 0.02 0.02 0.02 0.01 0.02 0.02 0.02 0.01 0.02 0.02 0.02 0.02 0.01 0.02 0.02 0.02 0.01 0.01 0.02 0.02 0.03 0.03 0.03 0.03 0.04 0.05 0.06 0.05 0.05 0.04 0.05 0.06 0.08 0.10
0.01 0.01 0.03 0.05 0.06 0.06 0.06 0.08 0.07 0.03 0.02 0.01 0.01 0.01 0.01 0.02 0.02 0.03 0.03 0.03 0.02 0.02 0.02 0.02 0.01 0.01 0.01 0.01 0.01 0.02 0.03 0.02 0.03 0.04 0.05 0.05 0.04 0.04 0.03 0.04 0.07 0.08 0.10
0.01 0.01 0.02 0.04 0.04 0.05 0.06 0.09 0.07 0.03 0.01 0.01 0.01 0.00 0.01 0.01 0.02 0.02 0.02 0.02 0.02 0.02 0.02 0.02 0.02 0.01 0.01 0.01 0.02 0.02 0.02 0.03 0.04 0.05 0.05 0.05 0.04 0.04 0.02 0.03 0.06 0.07 0.06
0.00 0.00 0.01 0.01 0.01 0.02 0.03 0.06 0.09 0.06 0.02 0.01 0.01 0.01 0.01 0.01 0.02 0.01 0.01 0.01 0.02 0.03 0.03 0.02 0.02 0.01 0.02 0.02 0.03 0.04 0.04 0.04 0.03 0.03 0.04 0.04 0.03 0.03 0.03 0.02 0.03 0.04 0.04
0.00 0.00 0.00 0.00 0.01 0.01 0.02 0.03 0.06 0.05 0.02 0.01 0.01 0.01 0.02 0.01 0.02 0.02 0.01 0.01 0.01 0.02 0.02 0.02 0.02 0.02 0.02 0.03 0.04 0.04 0.06 0.03 0.03 0.03 0.03 0.02 0.02 0.02 0.02 0.03 0.03 0.02 0.02
0.00 0.00 0.00 0.00 0.01 0.02 0.03 0.01 0.01 0.02 0.02 0.01 0.01 0.01 0.02 0.01 0.02 0.02 0.02 0.01 0.01 0.02 0.02 0.03 0.03 0.03 0.03 0.04 0.04 0.04 0.04 0.02 0.03 0.04 0.04 0.04 0.03 0.02 0.02 0.03 0.04 0.03 0.03
0.00 0.00 0.00 0.00 0.00 0.01 0.03 0.03 0.01 0.01 0.02 0.01 0.01 0.01 0.01 0.01 0.02 0.03 0.02 0.01 0.01 0.01 0.02 0.02 0.02 0.02 0.03 0.05 0.05 0.03 0.02 0.02 0.02 0.03 0.05 0.04 0.02 0.01 0.02 0.02 0.05 0.05 0.04
0.00 0.00 0.00 0.00 0.00 0.01 0.02 0.03 0.02 0.01 0.01 0.01 0.01 0.01 0.01 0.01 0.02 0.02 0.02 0.01 0.01 0.01 0.01 0.02 0.03 0.04 0.04 0.03 0.03 0.02 0.02 0.02 0.02 0.02 0.03 0.03 0.02 0.01 0.02 0.02 0.04 0.07 0.08
0.00 0.00 0.00 0.01 0.01 0.02 0.02 0.03 0.03 0.03 0.02 0.01 0.01 0.02 0.01 0.01 0.01 0.02 0.02 0.02 0.01 0.01 0.01 0.02 0.03 0.05 0.04 0.03 0.03 0.02 0.02 0.02 0.02 0.02 0.02 0.02 0.02 0.02 0.03 0.04 0.03 0.04 0.05
0.00 0.00 0.01 0.01 0.02 0.03 0.03 0.03 0.04 0.03 0.02 0.01 0.02 0.03 0.03 0.02 0.01 0.02 0.04 0.02 0.01 0.01 0.01 0.02 0.04 0.03 0.03 0.04 0.05 0.04 0.03 0.03 0.02 0.02 0.02 0.03 0.03 0.03 0.04 0.04 0.04 0.04 0.03
MSLP
1014.07 1013.62 1013.26 1013.05 1013.02 1013.12 1013.32 1013.55 1013.75 1013.91 1014.01 1014.08 1014.17 1014.31 1014.50 1014.75 1015.04 1015.31 1015.53 1015.67 1015.74 1015.74 1015.71 1015.69 1015.70 1015.77 1015.89 1016.04 1016.20 1016.34 1016.45 1016.52 1016.57 1016.59 1016.63 1016.67 1016.73 1016.80 1016.88 1016.95 1017.02 1017.08 1017.15
1014.39 1013.98 1013.66 1013.48 1013.47 1013.59 1013.78 1014.00 1014.18 1014.31 1014.39 1014.45 1014.53 1014.65 1014.85 1015.10 1015.38 1015.65 1015.86 1016.01 1016.07 1016.08 1016.05 1016.03 1016.04 1016.09 1016.18 1016.30 1016.42 1016.51 1016.59 1016.64 1016.67 1016.72 1016.77 1016.85 1016.94 1017.05 1017.15 1017.23 1017.31 1017.37 1017.44
1014.57 1014.21 1013.93 1013.81 1013.84 1013.99 1014.20 1014.43 1014.61 1014.73 1014.80 1014.84 1014.89 1014.99 1015.16 1015.38 1015.63 1015.87 1016.06 1016.20 1016.26 1016.28 1016.27 1016.26 1016.28 1016.33 1016.41 1016.49 1016.57 1016.63 1016.68 1016.71 1016.75 1016.80 1016.89 1017.00 1017.14 1017.27 1017.39 1017.49 1017.57 1017.64 1017.71
1014.65 1014.34 1014.12 1014.05 1014.14 1014.33 1014.59 1014.83 1015.02 1015.14 1015.19 1015.21 1015.24 1015.30 1015.42 1015.59 1015.78 1015.98 1016.14 1016.25 1016.32 1016.35 1016.37 1016.40 1016.44 1016.50 1016.58 1016.65 1016.70 1016.73 1016.75 1016.78 1016.82 1016.89 1017.01 1017.16 1017.32 1017.48 1017.62 1017.72 1017.80 1017.87 1017.94
1014.70 1014.43 1014.27 1014.27 1014.41 1014.65 1014.94 1015.20 1015.40 1015.51 1015.55 1015.55 1015.54 1015.56 1015.63 1015.73 1015.87 1016.01 1016.13 1016.22 1016.29 1016.35 1016.41 1016.47 1016.55 1016.64 1016.72 1016.79 1016.82 1016.84 1016.85 1016.86 1016.91 1017.01 1017.15 1017.32 1017.50 1017.67 1017.81 1017.91 1017.98 1018.04 1018.11
1014.78 1014.56 1014.45 1014.50 1014.68 1014.96 1015.26 1015.53 1015.72 1015.83 1015.85 1015.83 1015.79 1015.78 1015.79 1015.85 1015.93 1016.02 1016.11 1016.18 1016.25 1016.33 1016.42 1016.53 1016.65 1016.77 1016.87 1016.94 1016.97 1016.97 1016.96 1016.98 1017.03 1017.14 1017.29 1017.48 1017.67 1017.84 1017.97 1018.05 1018.10 1018.14 1018.21
1014.95 1014.77 1014.70 1014.79 1015.00 1015.28 1015.57 1015.82 1015.99 1016.07 1016.08 1016.04 1015.99 1015.95 1015.95 1015.97 1016.01 1016.07 1016.12 1016.18 1016.25 1016.35 1016.47 1016.61 1016.77 1016.91 1017.02 1017.09 1017.12 1017.11 1017.09 1017.10 1017.16 1017.27 1017.43 1017.62 1017.81 1017.97 1018.08 1018.14 1018.16 1018.19 1018.24
1015.24 1015.09 1015.06 1015.16 1015.37 1015.62 1015.87 1016.07 1016.19 1016.24 1016.22 1016.18 1016.13 1016.10 1016.10 1016.12 1016.15 1016.18 1016.21 1016.25 1016.31 1016.41 1016.54 1016.70 1016.88 1017.04 1017.16 1017.23 1017.25 1017.23 1017.21 1017.21 1017.26 1017.37 1017.54 1017.73 1017.91 1018.06 1018.15 1018.18 1018.18 1018.19 1018.23
1015.66 1015.54 1015.53 1015.63 1015.80 1016.00 1016.17 1016.29 1016.34 1016.34 1016.30 1016.25 1016.23 1016.23 1016.25 1016.29 1016.32 1016.34 1016.36 1016.38 1016.42 1016.50 1016.63 1016.79 1016.97 1017.14 1017.26 1017.33 1017.35 1017.32 1017.29 1017.28 1017.32 1017.43 1017.59 1017.78 1017.96 1018.10 1018.18 1018.20 1018.19 1018.18 1018.21
1016.18 1016.09 1016.10 1016.18 1016.29 1016.40 1016.47 1016.49 1016.45 1016.39 1016.32 1016.28 1016.28 1016.32 1016.38 1016.45 1016.50 1016.52 1016.51 1016.51 1016.52 1016.58 1016.69 1016.84 1017.01 1017.18 1017.31 1017.38 1017.39 1017.37 1017.32 1017.31 1017.34 1017.44 1017.59 1017.78 1017.96 1018.10 1018.18 1018.21 1018.19 1018.17 1018.20
1016.77 1016.73 1016.74 1016.78 1016.83 1016.83 1016.79 1016.68 1016.54 1016.41 1016.31 1016.26 1016.29 1016.37 1016.47 1016.57 1016.63 1016.65 1016.63 1016.59 1016.57 1016.59 1016.67 1016.81 1016.98 1017.15 1017.29 1017.38 1017.40 1017.38 1017.33 1017.31 1017.33 1017.42 1017.57 1017.75 1017.93 1018.09 1018.18 1018.22 1018.22 1018.21 1018.23
1017.42 1017.41 1017.42 1017.43 1017.39 1017.29 1017.11 1016.89 1016.65 1016.43 1016.29 1016.24 1016.27 1016.38 1016.51 1016.62 1016.69 1016.70 1016.65 1016.58 1016.52 1016.51 1016.57 1016.69 1016.87 1017.06 1017.22 1017.33 1017.38 1017.37 1017.34 1017.31 1017.32 1017.40 1017.53 1017.71 1017.90 1018.07 1018.19 1018.26 1018.28 1018.28 1018.30
1018.08 1018.10 1018.11 1018.07 1017.95 1017.75 1017.46 1017.12 1016.78 1016.49 1016.30 1016.22 1016.25 1016.36 1016.49 1016.61 1016.66 1016.65 1016.56 1016.46 1016.36 1016.32 1016.37 1016.49 1016.69 1016.91 1017.11 1017.27 1017.36 1017.38 1017.36 1017.34 1017.34 1017.40 1017.51 1017.68 1017.87 1018.06 1018.20 1018.30 1018.36 1018.38 1018.40
1018.73 1018.76 1018.76 1018.68 1018.50 1018.20 1017.82 1017.39 1016.98 1016.62 1016.38 1016.27 1016.27 1016.35 1016.46 1016.54 1016.56 1016.50 1016.39 1016.24 1016.11 1016.06 1016.09 1016.23 1016.45 1016.71 1016.97 1017.19 1017.33 1017.40 1017.41 1017.39 1017.39 1017.43 1017.52 1017.67 1017.86 1018.05 1018.22 1018.35 1018.43 1018.48 1018.51
1019.33 1019.36 1019.34 1019.22 1018.99 1018.64 1018.20 1017.71 1017.24 1016.84 1016.55 1016.40 1016.35 1016.38 1016.43 1016.46 1016.43 1016.32 1016.16 1015.97 1015.82 1015.75 1015.78 1015.93 1016.17 1016.48 1016.80 1017.07 1017.28 1017.39 1017.44 1017.45 1017.44 1017.46 1017.54 1017.66 1017.84 1018.03 1018.21 1018.36 1018.47 1018.54 1018.58
1019.84 1019.85 1019.80 1019.66 1019.39 1019.02 1018.56 1018.07 1017.58 1017.16 1016.84 1016.64 1016.53 1016.49 1016.47 1016.43 1016.32 1016.16 1015.94 1015.72 1015.53 1015.44 1015.46 1015.61 1015.87 1016.20 1016.56 1016.89 1017.14 1017.32 1017.41 1017.44 1017.44 1017.46 1017.52 1017.63 1017.78 1017.96 1018.15 1018.32 1018.45 1018.54 1018.59
1020.23 1020.21 1020.13 1019.96 1019.70 1019.34 1018.90 1018.44 1017.97 1017.56 1017.23 1016.98 1016.82 1016.70 1016.59 1016.46 1016.28 1016.05 1015.78 1015.51 1015.30 1015.17 1015.17 1015.29 1015.54 1015.87 1016.23 1016.58 1016.88 1017.10 1017.23 1017.31 1017.34 1017.37 1017.42 1017.52 1017.66 1017.84 1018.03 1018.21 1018.36 1018.47 1018.53
1020.50 1020.43 1020.31 1020.14 1019.89 1019.57 1019.20 1018.80 1018.39 1018.01 1017.68 1017.41 1017.18 1016.98 1016.79 1016.57 1016.31 1016.02 1015.70 1015.40 1015.14 1014.97 1014.91 1014.99 1015.18 1015.46 1015.80 1016.14 1016.45 1016.70 1016.88 1017.00 1017.08 1017.14 1017.22 1017.32 1017.46 1017.64 1017.83 1018.02 1018.19 1018.32 1018.41
1020.64 1020.51 1020.37 1020.19 1019.98 1019.73 1019.44 1019.12 1018.79 1018.47 1018.15 1017.86 1017.58 1017.31 1017.03 1016.73 1016.41 1016.07 1015.71 1015.37 1015.07 1014.84 1014.71 1014.70 1014.80 1014.99 1015.25 1015.54 1015.84 1016.10 1016.32 1016.50 1016.64 1016.76 1016.88 1017.02 1017.18 1017.36 1017.57 1017.77 1017.96 1018.12 1018.24
1020.68 1020.50 1020.33 1020.16 1019.99 1019.81 1019.61 1019.40 1019.15 1018.88 1018.59 1018.28 1017.95 1017.61 1017.27 1016.91 1016.54 1016.16 1015.77 1015.40 1015.06 1014.78 1014.57 1014.44 1014.42 1014.48 1014.63 1014.84 1015.09 1015.35 1015.60 1015.84 1016.05 1016.25 1016.44 1016.62 1016.82 1017.03 1017.25 1017.47 1017.68 1017.88 1018.04
1020.68 1020.47 1020.27 1020.11 1019.97 1019.86 1019.74 1019.61 1019.44 1019.22 1018.94 1018.61 1018.24 1017.84 1017.44 1017.03 1016.63 1016.24 1015.85 1015.47 1015.11 1014.77 1014.47 1014.23 1014.07 1013.99 1014.00 1014.11 1014.28 1014.52 1014.78 1015.07 1015.36 1015.64 1015.91 1016.16 1016.41 1016.66 1016.90 1017.14 1017.38 1017.60 1017.81
1020.71 1020.47 1020.26 1020.10 1019.98 1019.91 1019.85 1019.77 1019.65 1019.45 1019.17 1018.81 1018.40 1017.96 1017.50 1017.06 1016.65 1016.26 1015.89 1015.52 1015.16 1014.79 1014.42 1014.08 1013.78 1013.56 1013.43 1013.41 1013.50 1013.68 1013.95 1014.27 1014.63 1014.98 1015.33 1015.66 1015.96 1016.25 1016.52 1016.78 1017.04 1017.29 1017.54
1020.84 1020.58 1020.35 1020.17 1020.06 1019.99 1019.95 1019.89 1019.77 1019.57 1019.27 1018.88 1018.42 1017.92 1017.43 1016.97 1016.55 1016.18 1015.85 1015.52 1015.17 1014.80 1014.40 1013.98 1013.58 1013.23 1012.96 1012.82 1012.80 1012.93 1013.17 1013.50 1013.90 1014.31 1014.73 1015.12 1015.47 1015.80 1016.09 1016.38 1016.65 1016.93 1017.22
1021.09 1020.83 1020.57 1020.36 1020.22 1020.12 1020.06 1019.98 1019.84 1019.60 1019.26 1018.81 1018.29 1017.75 1017.22 1016.74 1016.33 1015.99 1015.69 1015.41 1015.12 1014.77 1014.36 1013.91 1013.44 1012.99 1012.61 1012.35 1012.24 1012.28 1012.48 1012.79 1013.19 1013.64 1014.10 1014.53 1014.93 1015.28 1015.61 1015.91 1016.20 1016.50 1016.82
1021.48 1021.21 1020.92 1020.66 1020.45 1020.30 1020.17 1020.04 1019.84 1019.55 1019.15 1018.65 1018.07 1017.47 1016.90 1016.39 1015.98 1015.66 1015.41 1015.18 1014.94 1014.63 1014.26 1013.81 1013.30 1012.80 1012.34 1011.99 1011.78 1011.74 1011.86 1012.12 1012.50 1012.94 1013.41 1013.87 1014.30 1014.68 1015.03 1015.36 1015.67 1015.99 1016.33
1021.96 1021.68 1021.34 1021.01 1020.72 1020.48 1020.28 1020.06 1019.80 1019.45 1018.98 1018.42 1017.78 1017.12 1016.50 1015.96 1015.52 1015.20 1014.97 1014.79 1014.59 1014.35 1014.02 1013.60 1013.10 1012.58 1012.08 1011.66 1011.36 1011.23 1011.27 1011.46 1011.78 1012.19 1012.65 1013.11 1013.56 1013.97 1014.36 1014.71 1015.05 1015.40 1015.76
Thickness
5786 5787 5785 5782 5780 5778 5777 5776 5775 5775 5774 5774 5774 5774 5774 5773 5773 5773 5772 5772 5772 5772 5771 5771 5771 5771 5770 5769 5768 5768 5767 5767 5766 5765 5763 5762 5761 5760 5759 5758 5758 5757 5756
5791 5788 5785 5782 5780 5778 5776 5775 5774 5774 5773 5772 5772 5772 5771 5771 5770 5770 5770 5770 5770 5770 5769 5769 5769 5769 5768 5767 5767 5766 5766 5765 5764 5763 5762 5761 5759 5758 5757 5757 5756 5755 5754
5792 5788 5785 5782 5779 5777 5775 5774 5773 5773 5772 5771 5770 5770 5769 5769 5768 5768 5768 5768 5768 5767 5767 5767 5766 5766 5766 5765 5765 5765 5764 5763 5762 5762 5760 5758 5757 5756 5755 5755 5754 5753 5753
5791 5787 5784 5781 5778 5776 5774 5773 5772 5771 5771 5770 5769 5768 5767 5766 5766 5766 5766 5766 5765 5765 5764 5764 5764 5764 5763 5763 5763 5762 5762 5761 5760 5759 5758 5757 5756 5755 5754 5753 5752 5752 5751
5790 5786 5783 5780 5777 5775 5773 5772 5771 5770 5769 5768 5767 5766 5765 5764 5763 5763 5763 5763 5763 5762 5762 5762 5762 5761 5761 5761 5761 5760 5760 5759 5758 5757 5756 5755 5754 5753 5753 5752 5751 5750 5750
5788 5784 5782 5779 5776 5774 5772 5771 5769 5769 5768 5767 5765 5764 5763 5762 5762 5761 5761 5761 5760 5760 5760 5760 5759 5759 5759 5759 5759 5758 5758 5757 5756 5755 5754 5753 5753 5752 5751 5751 5750 5749 5748
5786 5783 5781 5778 5776 5773 5771 5769 5768 5767 5766 5765 5764 5763 5762 5760 5760 5759 5759 5759 5758 5758 5758 5758 5757 5757 5757 5759 5758 5756 5755 5755 5754 5753 5752 5752 5751 5751 5750 5750 5749 5747 5747
5785 5782 5779 5777 5775 5773 5771 5769 5767 5765 5765 5763 5762 5761 5760 5759 5758 5758 5757 5757 5756 5756 5756 5756 5755 5755 5756 5758 5757 5754 5753 5752 5752 5751 5750 5750 5750 5749 5748 5748 5747 5746 5745
5783 5780 5778 5776 5774 5772 5770 5768 5766 5764 5763 5762 5760 5759 5759 5758 5757 5756 5755 5755 5755 5755 5754 5754 5754 5754 5754 5755 5753 5751 5750 5750 5749 5749 5748 5748 5748 5747 5747 5746 5745 5744 5743
5780 5778 5776 5774 5773 5771 5769 5767 5765 5763 5762 5760 5759 5758 5757 5756 5755 5754 5753 5753 5753 5753 5753 5752 5752 5753 5753 5752 5751 5749 5748 5748 5747 5747 5746 5746 5746 5746 5745 5745 5744 5742 5741
5777 5776 5775 5773 5772 5770 5768 5766 5764 5762 5760 5759 5758 5756 5755 5754 5753 5752 5751 5751 5751 5751 5751 5751 5750 5750 5750 5749 5748 5747 5746 5745 5744 5744 5744 5744 5744 5744 5744 5743 5742 5740 5739
5774 5775 5774 5772 5771 5769 5766 5764 5762 5761 5759 5757 5756 5755 5753 5752 5751 5750 5749 5749 5749 5749 5749 5749 5748 5747 5747 5746 5745 5744 5743 5742 5742 5742 5742 5742 5742 5742 5741 5741 5740 5739 5738
5776 5774 5773 5772 5770 5768 5765 5763 5761 5759 5758 5756 5755 5753 5752 5750 5749 5747 5746 5746 5747 5747 5747 5747 5746 5744 5744 5743 5742 5741 5740 5740 5740 5740 5740 5740 5740 5740 5739 5739 5738 5737 5736
5775 5774 5773 5771 5769 5767 5765 5762 5760 5758 5756 5755 5753 5752 5750 5748 5746 5745 5744 5743 5744 5744 5744 5743 5742 5742 5741 5740 5739 5738 5738 5738 5737 5738 5738 5738 5738 5738 5738 5737 5736 5736 5735
5775 5774 5773 5771 5769 5766 5764 5761 5759 5757 5755 5753 5751 5750 5749 5746 5744 5743 5742 5741 5741 5741 5741 5740 5739 5739 5738 5737 5736 5736 5735 5735 5735 5735 5736 5736 5736 5736 5735 5735 5734 5734 5733
5776 5774 5773 5771 5769 5766 5763 5760 5758 5756 5753 5752 5750 5748 5747 5745 5743 5741 5740 5739 5739 5739 5738 5737 5736 5735 5734 5734 5733 5733 5733 5733 5733 5733 5733 5733 5733 5733 5733 5733 5732 5732 5731
5777 5776 5773 5771 5768 5765 5762 5759 5757 5755 5752 5750 5748 5747 5745 5744 5742 5740 5739 5737 5737 5736 5735 5734 5733 5732 5731 5730 5730 5730 5730 5730 5730 5730 5730 5730 5730 5730 5730 5730 5730 5729 5729
5778 5775 5773 5772 5767 5764 5760 5758 5756 5753 5751 5749 5747 5746 5744 5742 5741 5739 5737 5736 5735 5734 5733 5731 5729 5728 5727 5726 5726 5726 5727 5727 5727 5727 5727 5727 5727 5727 5727 5727 5727 5726 5726
5778 5775 5772 5770 5767 5763 5759 5757 5755 5752 5750 5748 5746 5745 5743 5741 5740 5738 5736 5735 5733 5731 5730 5729 5727 5726 5724 5723 5723 5723 5723 5724 5724 5724 5724 5724 5724 5724 5724 5723 5724 5723 5723
5779 5775 5771 5768 5765 5762 5758 5755 5752 5750 5748 5746 5745 5743 5742 5740 5739 5737 5735 5733 5731 5729 5728 5726 5724 5723 5722 5721 5721 5719 5719 5720 5720 5721 5720 5720 5720 5720 5720 5720 5720 5720 5720
5777 5774 5770 5767 5764 5760 5756 5752 5749 5747 5746 5745 5743 5742 5740 5739 5737 5735 5733 5731 5729 5727 5725 5724 5723 5721 5719 5719 5716 5714 5715 5716 5716 5717 5717 5717 5717 5717 5717 5717 5717 5716 5716
5775 5772 5770 5767 5764 5760 5757 5754 5750 5748 5745 5744 5742 5740 5739 5737 5736 5734 5731 5729 5727 5725 5724 5723 5721 5719 5717 5716 5713 5709 5707 5708 5711 5713 5713 5713 5713 5714 5713 5714 5713 5713 5713
5774 5772 5771 5766 5763 5760 5757 5752 5749 5745 5743 5740 5739 5737 5737 5735 5734 5732 5730 5728 5726 5724 5721 5720 5720 5717 5714 5713 5712 5708 5703 5701 5703 5707 5709 5709 5710 5710 5710 5710 5710 5710 5709
5774 5773 5769 5766 5762 5758 5755 5751 5746 5742 5739 5738 5737 5736 5735 5733 5732 5730 5728 5726 5724 5722 5720 5719 5718 5716 5713 5710 5709 5708 5707 5705 5701 5700 5703 5705 5706 5706 5707 5707 5706 5706 5706
5774 5771 5767 5764 5760 5757 5754 5751 5746 5742 5740 5737 5736 5734 5732 5731 5730 5728 5726 5724 5723 5721 5719 5718 5716 5714 5712 5709 5707 5706 5704 5702 5702 5699 5697 5699 5701 5703 5703 5703 5702 5702 5702
5770 5768 5764 5761 5757 5754 5752 5750 5746 5742 5738 5735 5733 5730 5728 5728 5727 5726 5725 5723 5721 5719 5718 5716 5714 5712 5710 5708 5706 5704 5703 5701 5699 5698 5695 5694 5695 5697 5699 5699 5698 5698 5698